Location: Bellegarde
(43.9526°N, 6.1680°E)
Time: 06:27:44
(UTC+00:00)

Daily predictions for brighter satellites

Satellite Brightness Start Highest point End
(mag) Time Altitude Azimuth Time Altitude Azimuth Time Altitude Azimuth
Lacrosse 5 rocket 3.4 18:02:54 10° W 18:06:30 27° NNW 18:10:16 10° NNE
CSL-04 Debris 4.3 18:02:02 10° SE 18:07:15 54° ENE 18:12:30 10° N
Cosmos 1939 Rocket 3.7 18:05:35 10° S 18:09:38 58° W 18:13:46 10° NNW
CZ-2D R/B 3.5 18:05:49 10° S 18:09:42 75° W 18:13:36 10° NNW
Sich 1 Rocket 4.3 18:06:16 10° SSE 18:10:18 34° E 18:14:23 10° NNE
Helios 1A Rocket 4.1 18:10:26 10° S 18:14:24 49° W 18:18:25 10° NNW
Meteor 1-21 4.2 18:08:58 10° N 18:14:33 63° ENE 18:20:04 10° SSE
Cosmos 807 4.5 18:11:44 10° S 18:14:44 50° E 18:18:14 10° NNE
MOS 1 Rocket 3.7 18:11:24 10° NNE 18:15:27 34° E 18:19:22 10° SSE
CSL-04 Rocket 3.8 18:10:22 10° SSE 18:15:41 61° ENE 18:21:06 10° N
Cosmos 1603 3.7 18:10:34 10° NNW 18:16:16 87° ENE 18:21:54 10° SSE
SJ 16-02 2.9 18:13:58 10° SW 18:18:06 40° WNW 18:22:15 10° N
Cosmos 2112 Rocket 4.4 18:16:19 10° NNW 18:21:31 70° WSW 18:26:42 10° S
Cosmos 1937 Rocket 3.5 18:16:31 10° SSW 18:21:46 78° ESE 18:27:00 10° NNE
Cosmos 1680 Rocket 4.3 18:19:53 10° NNW 18:24:59 56° WSW 18:30:06 10° S
Okean 2 Rocket 3.7 18:24:48 10° SSE 18:28:51 34° E 18:32:54 10° NNE
Abrixas rocket 3.1 18:26:31 10° W 18:29:11 35° N 18:31:44 11° ENE
Cosmos 1464 Rocket 4.2 18:24:40 10° SSE 18:30:25 45° E 18:36:13 10° NNE
NOSS 2-2 (E) 2.9 18:27:28 10° SSW 18:30:55 75° SE 18:34:45 10° NE
SL-08 RB Rocket 4.4 18:27:25 10° SE 18:31:35 35° ENE 18:35:44 10° N
Okean-O 4.0 18:30:53 10° S 18:35:06 43° W 18:39:20 10° NNW
USA 116 3.7 18:32:30 10° N 18:35:57 76° WNW 18:39:48 10° SSW
ATLAS 2AS CENTAUR R/B 4.2 18:32:18 10° SE 18:36:35 16° ESE 18:40:55 10° ENE
Okean 2 4.1 18:32:40 10° NNW 18:36:47 58° W 18:40:52 10° S
Cosmos 1300 Rocket 4.0 18:33:20 10° SSE 18:37:26 40° E 18:41:35 10° NNE
CZ-2C R/B 2.7 18:35:44 10° SW 18:38:17 18° S 18:39:59 14° SE
NOSS 2-2 (D) 2.9 18:36:09 10° SSW 18:39:36 71° SE 18:43:23 10° NE
Iridium 4 Rocket 4.3 18:38:45 10° SSW 18:43:32 55° W 18:48:50 10° N
USA 102 4.2 18:38:58 14° SE 18:43:47 33° E 18:45:14 22° NE
YAOGAN 1 3.7 18:40:17 10° S 18:44:26 46° W 18:48:38 10° NNW
Cosmos 1975 4.2 18:41:19 10° SSW 18:45:14 44° WNW 18:49:10 10° N
CENTAUR R/B 3.8 18:38:44 10° NNW 18:46:02 38° NE 18:51:59 18° E
H-2A R/B 2.0 18:43:35 10° SSE 18:48:31 85° WSW 18:53:36 10° NNW
SJ-11-01 4.5 18:44:26 10° S 18:49:09 76° WSW 18:53:52 10° NNW
CZ-4 R/B 3.4 18:46:05 10° SSW 18:49:53 33° W 18:53:43 10° NNW
Cosmos 1437 4.2 18:48:33 10° NNW 18:51:21 36° W 18:54:08 10° SSW
Cosmos 1674 4.0 18:48:48 10° NNE 18:51:52 22° ENE 18:52:10 22° E
ATLAS 3B R/B 4.4 18:47:38 10° NNW 18:52:20 19° NNE 18:56:56 11° ENE
Exosat Rocket 4.4 18:48:17 10° SSE 18:53:11 29° ESE 18:57:30 10° NE
ISS -3.9 18:50:42 10° SW 18:54:04 85° SE 18:56:09 22° ENE
Cosmos 1536 Rocket 4.0 18:52:16 10° N 18:56:30 42° ENE 18:58:59 22° SE
USA 238 DEB 4.2 18:50:42 10° NNW 18:57:43 52° NE 19:02:31 22° ESE
USA 238 4.2 18:50:49 10° NNW 18:57:49 51° NE 19:02:34 22° ESE
Cosmos 1891 Rocket 4.4 18:51:42 10° S 18:57:50 78° E 19:03:55 10° N
In-Cosmos 22 4.0 18:53:52 10° N 18:59:08 64° ENE 19:04:25 10° SSE
ARGOS 3.2 18:56:41 10° SSE 19:02:02 86° WSW 19:07:27 10° NNW
Cosmos 1025 Rocket 2.9 19:02:09 10° N 19:06:32 72° E 19:10:02 16° SSE
CZ-2C R/B 2.8 19:01:21 10° NNE 19:06:49 56° E 19:12:18 10° S
Cosmos 1707 3.0 19:05:56 10° NNW 19:09:45 69° W 19:13:33 10° S
Cosmos 2151 Rocket 3.5 19:05:48 10° S 19:10:12 67° E 19:14:40 10° NNE
KORONAS-FOTON 4.4 19:09:53 10° N 19:13:34 37° ENE 19:13:36 37° ENE
USA 186 1.6 19:13:02 36° S 19:14:10 85° W 19:17:24 10° NNW
Ariane Rocket 2.9 19:12:56 16° SSE 19:16:59 81° ENE 19:22:05 10° NNW
SJ-6B 2.5 19:16:15 41° SE 19:17:25 69° ENE 19:21:10 10° N
Cosmos 1844 3.8 19:13:56 10° S 19:19:24 50° ESE 19:24:51 10° NE
FREGAT/IRIS 3.4 19:20:39 35° N 19:20:39 35° N 19:22:19 10° N
Cosmos 2263 Rocket 4.1 19:16:47 10° WSW 19:21:41 31° NW 19:26:39 10° N
Nadezhda 4 Rocket 3.8 19:18:01 10° N 19:24:10 80° E 19:29:17 15° SSE
NOSS 2-2 (C) 4.5 19:20:59 10° WSW 19:24:18 39° NW 19:28:00 10° NNE
Cosmos 494 Rocket 4.3 19:19:48 10° N 19:24:53 47° ENE 19:26:05 40° ESE
NOSS 3-2 (A) 4.0 19:18:00 10° NW 19:25:34 76° NE 19:30:19 29° SE
MOS 1 4.2 19:21:25 19° SSE 19:25:40 83° ENE 19:31:24 10° NNW
USA 102 4.5 19:24:06 23° S 19:27:55 53° SW 19:29:59 20° NW
Cosmos 2034 Rocket 4.0 19:21:34 10° S 19:27:56 88° ESE 19:34:20 10° N
Cosmos 1844 Rocket 2.5 19:22:34 10° SSW 19:28:06 73° ESE 19:33:41 10° NNE
Cosmos 2298 Rocket 4.1 19:25:11 10° SSW 19:30:31 82° WNW 19:35:53 10° NNE
SPOT 3 Rocket 3.7 19:32:57 46° ESE 19:33:58 53° ENE 19:38:59 10° N
Resurs 01 Rocket 2.2 19:42:54 42° NE 19:42:54 42° NE 19:46:32 10° N
USA 234 3.1 19:37:25 10° NE 19:43:57 66° SE 19:50:27 10° SW
MetOp-A 4.3 19:42:59 27° S 19:46:00 73° WSW 19:51:23 10° NNW
Lacrosse 5 rocket 4.0 19:44:22 10° NW 19:47:00 15° N 19:49:28 11° NNE
OBJECT-B 2.3 19:52:33 33° NNW 19:52:33 33° NNW 19:54:30 10° NNW
Cosmos 1833 Rocket 4.0 19:46:58 10° N 19:51:25 25° NE 19:51:25 25° NE
Meteor 1-15 Rocket 4.3 19:46:51 10° SSW 19:52:28 78° W 19:58:12 10° N
Cosmos 1626 4.1 19:54:35 10° N 19:56:03 22° N 19:56:03 22° N
ARIANE 5 R/B 4.1 20:01:02 27° NNE 20:01:02 27° NNE 20:03:20 10° N
NOSS 3-2 (C) 4.0 19:52:48 10° NW 20:00:24 80° NE 20:03:03 48° SE
Cosmos 1634 Rocket 3.8 19:59:03 52° SSE 20:00:33 72° E 20:06:44 10° NNE
BREEZE-M TANK 2.7 19:57:20 10° W 20:04:38 84° NW 20:04:38 84° NW
Cosmos 2285 Rocket 4.0 20:01:41 10° SSW 20:07:59 80° WNW 20:14:22 10° NNE
Cosmos 1125 Rocket 3.9 20:02:50 10° SSW 20:08:05 63° WNW 20:13:24 10° NNE
Okean 1 Rocket 3.4 20:08:19 64° W 20:08:22 64° W 20:12:51 10° N
Resurs 1-3 4.4 20:18:55 48° W 20:18:55 48° W 20:22:58 10° NNW
Cosmos 1092 Rocket 4.4 20:17:33 10° NNW 20:23:36 59° W 20:25:37 40° SSW
Meteor 2-5 Rocket 4.0 20:19:15 10° NNW 20:24:50 65° W 20:25:27 60° SW
ATLAS 2AS CENTAUR R/B 2.9 20:18:29 10° SSW 20:26:21 73° ESE 20:34:14 10° NE
Cosmos 2026 Rocket 4.2 20:23:32 10° NNW 20:29:53 70° W 20:30:53 60° SW
ISS -0.7 20:28:15 10° WNW 20:29:08 15° WNW 20:29:08 15° WNW
Cosmos 2082 Rocket 3.7 20:28:51 10° N 20:32:16 26° NNE 20:32:16 26° NNE
Meteor 1-22 Rocket 4.4 20:34:25 70° W 20:34:40 71° WNW 20:40:42 10° N
CENTAUR R/B 3.2 20:29:17 10° NW 20:37:28 73° WSW 20:39:10 59° S
Cosmos 2279 Rocket 4.2 20:44:35 64° N 20:44:35 64° N 20:49:51 10° N
ATLAS 3B R/B 3.1 20:37:52 10° NNW 20:44:10 53° NNE 20:44:10 53° NNE
COSMOS 2406 3.8 20:38:56 10° NNW 20:43:10 51° N 20:43:10 51° N
Meteor 1-24 Rocket 4.3 20:42:12 10° NNW 20:47:08 52° WNW 20:47:08 52° WNW
Terra 4.2 21:02:36 17° N 21:02:36 17° N 21:03:46 10° N
Lacrosse 4 Rocket 4.4 21:06:22 10° NNW 21:06:37 11° NNW 21:06:37 11° NNW
Resurs 01 Rocket 4.3 21:20:28 16° WNW 21:20:28 16° WNW 21:22:06 10° NW
USA 234 4.0 21:24:43 36° NNE 21:26:48 47° NNW 21:33:00 10° W
Lacrosse 5 rocket 4.5 21:24:11 10° NNW 21:25:05 14° NNW 21:25:05 14° NNW
Cosmos 1833 Rocket 4.4 21:30:20 10° NNW 21:33:07 29° NW 21:33:07 29° NW
ATLAS 2AS CENTAUR R/B 4.2 22:10:47 10° WSW 22:18:01 36° NW 22:25:09 10° NNE
